Location: Sea Ranch
(38.7150°N, 123.4530°W)
Time: 01:04:04
(UTC-07:00)

Hubble Space Telescope - Visible Passes

Search period start: 04 August 2020 00:00
Search period end: 14 August 2020 00:00
Orbit: 536 x 540 km, 28.5° (Epoch: 03 August)

Date Brightness Start Highest point End Pass type
(mag) Time Alt. Az. Time Alt. Az. Time Alt. Az.
10 Aug 3.1 05:10:01 10° S 05:11:33 12° SSE 05:13:05 10° SE visible
11 Aug 2.9 04:59:50 13° S 05:00:43 14° SSE 05:02:48 10° SE visible
12 Aug 2.7 04:49:41 15° S 04:49:53 15° SSE 04:52:20 10° SE visible
13 Aug 2.7 04:39:34 16° SSE 04:39:34 16° SSE 04:41:44 10° SE visible
